Simultaneous Nadir Overpasses (SNOs) Predictions

Prediction of SNOs between NOAA-20 and METOP-B Satellite Orbit:

Table of predicted SNOs for the next 14.0 days since TLE Epoch: 2/5/2022
Index Date (NOAA-20) Time (NOAA-20) Lat,Lon (NOAA-20) SZA (NOAA-20 ) Date (METOP-B) Time (METOP-B) Lat,Lon (METOP-B) SZA (METOP-B ) Distance(km) Time Diff (sec)
1 02/15/2022 07:11:11 73.51, 62.33 86.51 02/15/2022 07:12:17 73.44, 65.28 86.26 93.56 66
2 02/15/2022 08:01:54 -73.45,-130.22 93.58 02/15/2022 08:03:01 -73.36,-127.58 93.83 84.21 67
3 02/15/2022 08:52:35 73.21, 37.63 86.15 02/15/2022 08:53:44 73.17, 39.33 85.99 54.92 69
4 02/15/2022 09:43:18 -73.15,-154.92 93.94 02/15/2022 09:44:28 -73.09,-153.52 94.09 45.77 70
5 02/15/2022 10:33:59 72.91, 12.91 85.79 02/15/2022 10:35:12 72.85, 13.30 85.69 14.45 73
6 02/15/2022 11:24:42 -72.85,-179.65 94.30 02/15/2022 11:25:55 -72.82,-179.44 94.36 7.73 73
7 02/15/2022 12:15:26 72.75, -12.15 85.60 02/15/2022 12:16:35 72.77, -12.20 85.60 2.41 69
8 02/15/2022 13:06:11 -72.80, 155.08 94.37 02/15/2022 13:07:17 -72.79, 155.17 94.40 3.21 66
9 02/15/2022 13:56:56 72.76, -37.53 85.57 02/15/2022 13:57:57 72.75, -37.58 85.56 1.86 61
10 02/15/2022 14:47:40 -72.75, 129.81 94.45 02/15/2022 14:48:39 -72.77, 129.79 94.44 2.89 59
11 02/15/2022 15:38:26 72.76, -62.90 85.55 02/15/2022 15:39:18 72.78, -62.86 85.56 2.88 52
12 02/15/2022 16:29:10 -72.75, 104.43 94.48 02/15/2022 16:30:01 -72.75, 104.40 94.49 0.91 51
13 02/15/2022 17:19:56 72.76, -88.28 85.53 02/15/2022 17:20:40 72.76, -88.25 85.51 1.13 44
14 02/15/2022 18:10:40 -72.75, 79.05 94.50 02/15/2022 18:11:23 -72.73, 79.02 94.53 2.46 43
15 02/15/2022 19:01:26 72.76,-113.66 85.50 02/15/2022 19:02:02 72.74,-113.63 85.47 2.71 36
16 02/15/2022 19:52:10 -72.75, 53.68 94.52 02/15/2022 19:52:44 -72.76, 53.74 94.53 2.24 34
17 02/15/2022 20:42:55 72.71,-138.93 85.42 02/15/2022 20:43:24 72.71,-139.02 85.43 2.97 29
18 02/15/2022 21:33:40 -72.75, 28.30 94.55 02/15/2022 21:34:06 -72.74, 28.35 94.57 2.35 26
19 02/15/2022 22:24:25 72.71,-164.30 85.40 02/15/2022 22:24:45 72.74,-164.30 85.43 3.65 20
20 02/15/2022 23:15:08 -72.70, 3.03 94.63 02/15/2022 23:15:27 -72.71, 2.97 94.62 2.51 19
21 02/16/2022 00:05:54 72.71, 170.32 85.38 02/16/2022 00:06:06 72.72, 170.32 85.38 1.09 12
22 02/16/2022 00:56:38 -72.70, -22.35 94.65 02/16/2022 00:56:49 -72.69, -22.42 94.66 2.48 11
23 02/16/2022 01:47:24 72.71, 144.94 85.35 02/16/2022 01:47:28 72.70, 144.93 85.34 1.49 4
24 02/16/2022 02:38:08 -72.70, -47.72 94.67 02/16/2022 02:38:10 -72.72, -47.70 94.66 2.31 2
25 02/16/2022 03:28:54 72.71, 119.57 85.33 02/16/2022 03:28:49 72.73, 119.65 85.34 3.30 5
26 02/16/2022 04:19:38 -72.70, -73.10 94.70 02/16/2022 04:19:32 -72.70, -73.08 94.70 0.72 6
27 02/16/2022 05:10:24 72.71, 94.19 85.31 02/16/2022 05:10:11 72.70, 94.27 85.30 2.72 13
28 02/16/2022 06:01:08 -72.70, -98.48 94.72 02/16/2022 06:00:54 -72.68, -98.47 94.74 2.92 14
29 02/16/2022 06:51:53 72.66, 68.92 85.23 02/16/2022 06:51:33 72.68, 68.88 85.25 2.51 20
30 02/16/2022 07:42:37 -72.65,-123.75 94.80 02/16/2022 07:42:16 -72.66,-123.85 94.79 3.41 21
31 02/16/2022 08:33:23 72.66, 43.54 85.20 02/16/2022 08:32:55 72.66, 43.50 85.21 1.50 28
32 02/16/2022 09:24:07 -72.65,-149.12 94.82 02/16/2022 09:23:37 -72.68,-149.13 94.79 3.33 30
33 02/16/2022 10:14:53 72.66, 18.17 85.18 02/16/2022 10:14:16 72.69, 18.22 85.21 3.26 37
34 02/16/2022 11:05:37 -72.66,-174.50 94.85 02/16/2022 11:04:59 -72.66,-174.52 94.83 0.95 38
35 02/16/2022 11:56:23 72.67, -7.21 85.16 02/16/2022 11:55:38 72.67, -7.17 85.17 1.45 45
36 02/16/2022 12:47:07 -72.66, 160.12 94.87 02/16/2022 12:46:21 -72.64, 160.10 94.87 1.89 46
37 02/16/2022 13:37:53 72.67, -32.59 85.13 02/16/2022 13:37:00 72.65, -32.55 85.12 2.60 53
38 02/16/2022 14:28:37 -72.66, 134.75 94.90 02/16/2022 14:27:42 -72.67, 134.82 94.87 2.76 55
39 02/16/2022 15:19:22 72.62, -57.86 85.05 02/16/2022 15:18:22 72.62, -57.94 85.08 2.69 60
40 02/16/2022 16:10:07 -72.66, 109.37 94.92 02/16/2022 16:09:04 -72.65, 109.43 94.92 2.39 63
41 02/16/2022 17:00:52 72.62, -83.24 85.03 02/16/2022 16:59:44 72.60, -83.32 85.04 3.37 68
42 02/16/2022 17:51:36 -72.61, 84.10 95.00 02/16/2022 17:50:26 -72.63, 84.05 94.96 2.55 70
43 02/16/2022 18:42:20 72.52,-108.41 84.89 02/16/2022 18:41:07 72.53,-108.81 84.95 13.55 73
44 02/16/2022 19:33:04 -72.51, 58.93 95.13 02/16/2022 19:31:50 -72.50, 58.46 95.09 15.63 74
45 02/16/2022 20:23:45 72.26,-133.27 84.59 02/16/2022 20:22:34 72.25,-134.70 84.68 48.28 71
46 02/16/2022 21:14:28 -72.20, 34.16 95.49 02/16/2022 21:13:18 -72.17, 32.48 95.40 57.21 70
47 02/16/2022 22:05:08 71.90,-157.96 84.18 02/16/2022 22:04:02 71.92,-160.67 84.37 93.44 66
48 02/16/2022 22:55:52 -71.90, 9.37 95.85 02/16/2022 22:54:45 -71.89, 6.61 95.66 95.21 67



Historial Predications of SNOs between NOAA-20 and METOP-B
